Location: ?????
(33.0533°N, 35.7070°E)
Time: 14:51:44
(UTC+00:00)

Daily predictions for brighter satellites

Satellite Brightness Start Highest point End
(mag) Time Altitude Azimuth Time Altitude Azimuth Time Altitude Azimuth
CSL-04 Debris 4.2 16:18:07 10° SSE 16:23:34 72° ENE 16:29:01 10° N
Hubble Space Telescope 2.9 16:25:20 10° S 16:26:29 11° SSE 16:27:37 10° SE
STARLINK-1072 4.2 16:22:33 10° NW 16:26:37 57° SW 16:30:40 10° SSE
Cosmos 1626 2.1 16:23:10 10° N 16:26:51 63° E 16:30:30 10° SSE
Cosmos 1939 Rocket 3.0 16:24:03 10° S 16:27:59 79° WSW 16:31:54 10° NNW
Cosmos 1943 Rocket 2.9 16:23:55 10° N 16:28:54 33° ENE 16:33:54 10° SE
Cosmos 2369 Rocket 3.3 16:25:31 10° N 16:30:11 26° ENE 16:34:48 10° ESE
STARLINK-1096 4.4 16:27:34 10° NW 16:31:36 51° SW 16:35:36 10° SSE
USA 81 4.4 16:26:46 10° N 16:32:02 71° W 16:37:16 10° S
Cosmos 2084 Rocket 4.1 16:36:20 10° NNW 16:40:34 41° NE 16:44:35 11° SE
Cosmos 1818 3.6 16:35:30 10° SSW 16:40:50 63° ESE 16:46:13 10° NE
Cosmos 1953 2.5 16:38:34 10° SSE 16:42:23 49° E 16:46:14 10° NNE
Cosmos 2228 4.3 16:39:19 10° SE 16:42:30 21° E 16:45:43 10° NE
Meteor 2-15 Rocket 4.4 16:37:13 10° S 16:43:14 72° E 16:49:17 10° NNE
STARLINK-1103 4.5 16:39:58 10° NNW 16:43:48 35° NE 16:46:52 14° ESE
Cosmos 1943 3.1 16:42:26 10° S 16:48:02 71° ESE 16:53:41 10° NNE
STARLINK-1101 4.3 16:44:56 10° NNW 16:48:50 39° NE 16:51:41 17° ESE
Cosmos 1302 Rocket 4.3 16:44:52 10° NNW 16:50:08 74° WSW 16:55:24 10° S
CSL-04 Rocket 4.1 16:45:41 10° S 16:50:55 64° WSW 16:56:10 10° NNW
ARGOS Delta rocket 4.1 16:46:36 10° SSE 16:51:41 64° ENE 16:57:01 10° N
Cosmos 1470 4.0 16:49:13 10° SSW 16:52:55 45° W 16:56:40 10° N
Cosmos 1437 4.3 16:51:46 10° NE 16:53:40 16° ENE 16:53:40 16° ENE
STARLINK-1102 4.2 16:49:50 10° NNW 16:53:48 43° NE 16:56:26 19° ESE
CZ-2C R/B 3.4 16:49:15 10° SE 16:53:51 39° ENE 16:58:19 10° N
SEDSat Delta rocket 3.2 16:50:10 10° W 16:55:21 74° S 16:58:36 19° ESE
CZ-3A R/B 4.5 16:15:32 10° W 16:55:58 51° SSW 17:03:27 13° SE
STARLINK-1111 4.0 16:54:46 10° NNW 16:58:47 48° NE 17:01:13 21° ESE
STARLINK-1073 3.9 16:59:43 10° NW 17:03:47 54° NE 17:06:00 24° ESE
ATLAS 5 CENTAUR R/B 3.5 16:59:29 10° SSW 17:03:47 26° SSE 17:09:31 18° ESE
H-2A R/B 2.1 16:58:47 10° SSE 17:03:57 58° ENE 17:09:01 10° N
SJ-11-01 4.3 17:03:23 10° SSE 17:08:05 88° W 17:12:48 10° NNW
Aureole 2 Rocket 2.2 17:05:11 10° N 17:08:37 67° ENE 17:10:27 24° SSE
STARLINK-1121 3.7 17:04:40 10° NW 17:08:46 60° NE 17:10:47 28° ESE
Aureole 1 Rocket 4.5 17:04:57 10° S 17:12:53 56° ESE 17:19:30 10° NNE
STARLINK-1106 3.6 17:09:38 10° NW 17:13:46 67° NE 17:15:35 31° ESE
STARLINK-1112 3.5 17:14:34 10° NW 17:18:43 76° NE 17:20:21 35° SE
ARGOS 3.1 17:13:39 11° SSE 17:18:49 68° ENE 17:24:10 10° N
CZ-2C R/B 3.0 17:15:32 10° NNE 17:20:17 36° E 17:23:04 21° SSE
STARLINK-1128 3.5 17:19:32 10° NW 17:23:42 85° NE 17:25:08 40° SE
Cosmos 1726 2.6 17:20:31 10° SSW 17:24:11 60° W 17:27:53 10° N
Cosmos 2184 Rocket 3.9 17:19:30 10° N 17:25:44 64° E 17:30:50 15° SSE
Meteor 2-10 4.4 17:20:57 10° SSW 17:26:16 70° W 17:31:49 10° N
SJ-6B 2.8 17:26:24 31° SSE 17:28:17 72° ENE 17:32:25 10° N
STARLINK-1113 3.5 17:24:33 10° NW 17:28:41 86° SW 17:29:55 44° SE
Delta 128 4.4 17:24:39 10° WSW 17:29:08 43° S 17:30:46 33° SE
FALCON 9 DEB 3.0 17:27:15 10° SW 17:30:43 70° SE 17:30:52 68° ESE
MONITOR-E 4.2 17:31:24 60° W 17:31:24 60° W 17:33:57 10° NNW
STARLINK-1119 3.6 17:29:31 10° NW 17:33:38 77° SW 17:34:43 48° SSE
STARLINK-29 3.0 17:33:13 10° SW 17:36:07 72° WSW 17:36:07 72° WSW
USA 186 2.7 17:35:24 23° SSW 17:37:12 50° W 17:40:26 10° NNW
Ariane Rocket 3.7 17:32:25 10° S 17:37:21 53° W 17:42:18 10° NNW
ISS -3.7 17:34:04 10° NW 17:37:15 72° N 17:37:15 72° N
DMSP B5D2-2 3.9 17:32:55 10° NNE 17:38:08 68° ESE 17:43:20 10° S
STARLINK-1114 3.7 17:34:30 10° NW 17:38:36 68° SW 17:39:29 50° SSE
MOS 1 4.4 17:33:48 11° S 17:39:10 76° WSW 17:44:50 10° NNW
Cosmos 2058 Rocket 3.2 17:39:24 53° E 17:39:31 53° E 17:43:55 10° NNE
USA 234 3.1 17:33:48 10° NE 17:40:22 85° SE 17:46:55 10° SW
ATLAS 2AS CENTAUR R/B 3.5 17:34:01 10° NNW 17:40:40 34° NE 17:42:31 30° ENE
Nadezhda 1 Rocket 3.9 17:36:21 10° S 17:42:44 85° E 17:49:09 10° N
Resurs 01 Rocket 2.8 17:44:09 28° NE 17:44:09 28° NE 17:47:00 10° N
STARLINK-1130 (DARKSAT) 3.9 17:39:30 10° NW 17:43:34 60° SW 17:44:17 51° S
FREGAT/IRIS 4.2 17:44:20 27° WSW 17:44:42 28° W 17:47:06 10° NW
Cosmos 1190 Rocket 3.9 17:40:59 10° S 17:46:16 78° ESE 17:51:34 10° NNE
MOS 1 Rocket 3.5 17:42:10 10° NNE 17:47:36 74° E 17:52:00 16° S
Cosmos 1140 Rocket 3.3 17:42:45 10° S 17:47:54 68° ESE 17:53:03 10° NNE
Cosmos 2154 Rocket 4.0 17:41:42 10° N 17:47:59 61° E 17:50:02 42° SE
STARLINK-1084 4.0 17:44:30 10° NW 17:48:33 53° SW 17:49:05 49° SSW
ATLAS 5 CENTAUR R/B 1.6 17:48:46 10° SW 17:52:46 70° WNW 17:57:07 10° NNE
Cosmos 1726 Rocket 4.0 17:48:46 10° SSW 17:53:05 61° W 17:57:28 10° N
STARLINK-1098 4.2 17:49:32 10° NW 17:53:31 47° SW 17:53:52 46° SSW
Cosmos 1340 Rocket 3.3 17:57:19 53° N 17:57:19 53° N 18:00:27 10° N
SL-24 R/B - RUBIN 2 4.5 17:51:27 10° SW 17:56:42 67° WNW 18:02:42 10° NNE
STARLINK-1123 4.5 17:54:34 10° WNW 17:58:29 41° SW 17:58:39 41° SW
Meteor 2-17 Rocket 4.3 17:59:39 10° N 18:05:50 84° E 18:07:23 54° SSE
SPOT 3 Rocket 3.6 18:05:02 50° S 18:06:21 73° WSW 18:11:34 10° NNW
Cosmos 1825 Rocket 4.5 18:02:29 10° NNW 18:06:40 45° W 18:07:51 36° SW
Hubble Space Telescope 3.1 18:03:31 10° SW 18:04:26 15° SW 18:04:26 15° SW
Cosmos 1328 4.5 18:04:20 10° NNW 18:07:40 53° NW 18:07:40 53° NW
SL-8 R/B 4.0 18:07:03 10° NW 18:11:11 61° NNW 18:11:11 61° NNW
Cosmos 1943 Rocket 4.0 18:07:53 10° NW 18:12:26 27° WSW 18:16:39 12° SSW
Cosmos 1703 4.3 18:10:02 10° NNW 18:13:16 44° WNW 18:13:16 44° WNW
Cosmos 2369 Rocket 3.5 18:09:06 10° NW 18:14:13 36° WSW 18:17:05 22° SSW
COSMOS 2455 4.1 18:09:21 10° N 18:13:30 27° NE 18:13:30 27° NE
NOSS 3-4 (A) 4.0 18:52:16 10° NNW 18:58:54 75° NW 18:58:54 75° NW
NOSS 3-4 (C) 4.0 18:52:23 10° NNW 18:58:59 75° NW 18:58:59 75° NW
ATLAS 2AS CENTAUR R/B 3.9 19:24:55 10° NW 19:29:59 37° WNW 19:29:59 37° WNW
Cosmos 2227 Rocket 4.2 23:49:33 24° NE 23:49:33 24° NE 23:52:04 10° NE
